Location: El Portezuelo
(28.4984°N, 16.3589°W)
Time: 22:57:38
(UTC+00:00)

Cosmos 1726 - Pass Details

Date: 20 January 2020
Orbit: 482 x 500 km, 82.5° (Epoch: 18 February)

Event Time Altitude Azimuth Distance (km) Brightness Sun altitude
Rises 06:27:25 0° 176° (S) 2,561 6.0 -19.8°
Reaches altitude 10° 06:29:32 10° 172° (S) 1,680 5.0 -19.4°
Maximum altitude 06:33:08 54° 94° (E) 598 2.8 -18.6°
Drops below altitude 10° 06:36:44 10° 16° (NNE) 1,679 4.8 -17.8°
Sets 06:38:51 0° 12° (NNE) 2,561 5.7 -17.4°
